GW2898 Weather Reports


Display with metric or nautical units.
time (UTC)temp
F
wind
direction
speed
MPH
gust
MPH
rain 1hr
in
rain 24hr
in
rain mn
in
humidity
%
barometer
mb
20260831005831 103 343 1.0 4.0 0.00 0.00 0.00 31 1011.0
20260831005327 104 294 3.0 4.0 0.00 0.00 0.00 31 1011.1
20260831004821 105 343 0.0 2.0 0.00 0.00 0.00 31 1011.3
20260831004318 103 52 0.0 3.0 0.00 0.00 0.00 31 1011.1
20260831003813 104 129 0.0 2.0 0.00 0.00 0.00 33 1010.9
20260831003309 105 357 1.0 4.0 0.00 0.00 0.00 31 1011.1
20260831002808 105 260 3.0 4.0 0.00 0.00 0.00 29 1011.1
20260831002306 105 301 2.0 4.0 0.00 0.00 0.00 30 1011.0
20260831001759 103 338 3.0 6.0 0.00 0.00 0.00 31 1011.1
20260831001253 104 314 3.0 8.0 0.00 0.00 0.00 30 1011.0
20260831000750 105 262 2.0 5.0 0.00 0.00 0.00 31 1011.1
20260831000245 105 274 3.0 4.0 0.00 0.00 0.00 30 1011.2
20260830235744 104 269 0.0 7.0 0.00 0.00 0.00 30 1011.0
20260830235238 105 280 3.0 6.0 0.00 0.00 0.00 30 1011.2
20260830234733 104 312 3.0 7.0 0.00 0.00 0.00 30 1011.1
20260830234230 104 310 0.0 6.0 0.00 0.00 0.00 30 1011.2
20260830233725 105 318 3.0 8.0 0.00 0.00 0.00 30 1011.3
20260830233221 105 346 2.0 11.0 0.00 0.00 0.00 30 1011.4
20260830232716 105 7 3.0 5.0 0.00 0.00 0.00 30 1011.4
20260830232211 105 316 1.0 3.0 0.00 0.00 0.00 29 1011.3
20260830231708 104 176 1.0 6.0 0.00 0.00 0.00 30 1011.6
20260830231207 104 86 3.0 3.0 0.00 0.00 0.00 31 1011.7
20260830230702 103 307 1.0 8.0 0.00 0.00 0.00 30 1012.0
20260830230157 105 236 0.0 2.0 0.00 0.00 0.00 29 1011.7
20260830225651 105 282 2.0 7.0 0.00 0.00 0.00 31 1011.8
20260830225146 105 306 3.0 6.0 0.00 0.00 0.00 30 1011.9
20260830224645 105 356 2.0 5.0 0.00 0.00 0.00 30 1012.0
20260830224141 105 336 2.0 4.0 0.00 0.00 0.00 30 1012.2
20260830223638 104 246 4.0 6.0 0.00 0.00 0.00 32 1012.4
20260830223137 105 230 3.0 4.0 0.00 0.00 0.00 33 1012.0
20260830222632 104 116 2.0 2.0 0.00 0.00 0.00 31 1012.5
20260830222128 104 295 2.0 8.0 0.00 0.00 0.00 31 1012.5
20260830221623 104 206 2.0 3.0 0.00 0.00 0.00 31 1012.6
20260830221119 104 261 1.0 4.0 0.00 0.00 0.00 29 1012.6
20260830220615 104 61 2.0 5.0 0.00 0.00 0.00 31 1012.6
20260830220113 103 71 2.0 4.0 0.00 0.00 0.00 32 1012.7
20260830215612 105 84 2.0 3.0 0.00 0.00 0.00 33 1013.0
20260830215107 103 67 3.0 4.0 0.00 0.00 0.00 31 1013.1
20260830214602 104 89 2.0 5.0 0.00 0.00 0.00 32 1013.2
20260830214057 104 288 3.0 4.0 0.00 0.00 0.00 31 1013.4
20260830213551 104 331 3.0 4.0 0.00 0.00 0.00 30 1013.5
20260830213047 103 50 3.0 7.0 0.00 0.00 0.00 31 1013.5
20260830212543 103 95 4.0 8.0 0.00 0.00 0.00 31 1013.9
20260830212037 103 73 2.0 3.0 0.00 0.00 0.00 31 1014.0
20260830211532 102 199 3.0 7.0 0.00 0.00 0.00 34 1014.0
20260830211031 102 185 4.0 7.0 0.00 0.00 0.00 32 1014.2
20260830210527 103 12 4.0 6.0 0.00 0.00 0.00 31 1014.2
20260830210026 102 309 2.0 3.0 0.00 0.00 0.00 32 1014.0
20260830205524 102 75 2.0 6.0 0.00 0.00 0.00 34 1014.3
20260830205020 102 153 3.0 5.0 0.00 0.00 0.00 32 1014.2
20260830204518 101 176 2.0 6.0 0.00 0.00 0.00 33 1014.6
20260830204018 101 135 9.0 11.0 0.00 0.00 0.00 33 1014.5
20260830203514 102 276 3.0 3.0 0.00 0.00 0.00 32 1014.9
20260830203009 102 293 1.0 6.0 0.00 0.00 0.00 32 1014.7
20260830202503 102 114 2.0 3.0 0.00 0.00 0.00 35 1014.8
20260830202000 101 24 1.0 5.0 0.00 0.00 0.00 34 1015.0
20260830201458 101 48 3.0 8.0 0.00 0.00 0.00 33 1015.1
20260830200954 101 228 0.0 4.0 0.00 0.00 0.00 33 1014.9
20260830200448 101 19 4.0 11.0 0.00 0.00 0.00 34 1015.2
20260830195943 101 4 3.0 7.0 0.00 0.00 0.00 34 1015.2
20260830195438 100 302 3.0 5.0 0.00 0.00 0.00 35 1015.1
20260830194936 100 301 5.0 9.0 0.00 0.00 0.00 34 1015.3
20260830194436 101 332 0.0 2.0 0.00 0.00 0.00 34 1015.3
20260830193935 100 286 2.0 7.0 0.00 0.00 0.00 35 1015.6
20260830193434 100 350 2.0 4.0 0.00 0.00 0.00 34 1015.7
20260830192930 100 245 2.0 3.0 0.00 0.00 0.00 35 1015.6
20260830192425 100 203 1.0 7.0 0.00 0.00 0.00 34 1015.8
20260830191920 100 323 1.0 4.0 0.00 0.00 0.00 37 1015.8
20260830191420 100 201 1.0 5.0 0.00 0.00 0.00 36 1016.0
20260830190916 100 255 1.0 3.0 0.00 0.00 0.00 36 1016.0
20260830190411 99 227 3.0 9.0 0.00 0.00 0.00 38 1016.3
20260830185910 100 155 5.0 9.0 0.00 0.00 0.00 35 1016.3
20260830185405 100 202 3.0 5.0 0.00 0.00 0.00 35 1016.3
20260830184900 100 59 3.0 5.0 0.00 0.00 0.00 35 1016.5
20260830184359 100 224 0.0 5.0 0.00 0.00 0.00 36 1016.3
20260830183854 100 177 2.0 5.0 0.00 0.00 0.00 39 1016.4
20260830183349 99 218 2.0 5.0 0.00 0.00 0.00 36 1016.5
20260830182844 98 261 3.0 9.0 0.00 0.00 0.00 37 1016.8
20260830182340 98 249 3.0 10.0 0.00 0.00 0.00 37 1016.9
20260830181836 98 219 3.0 5.0 0.00 0.00 0.00 38 1016.8
20260830181331 99 179 2.0 7.0 0.00 0.00 0.00 38 1017.1
20260830180830 99 129 1.0 5.0 0.00 0.00 0.00 37 1016.9
20260830180325 98 106 1.0 2.0 0.00 0.00 0.00 38 1017.1
20260830175824 98 165 4.0 10.0 0.00 0.00 0.00 37 1017.1
20260830175319 97 168 4.0 8.0 0.00 0.00 0.00 39 1017.1
20260830174814 97 166 5.0 10.0 0.00 0.00 0.00 37 1017.5
20260830174310 97 212 3.0 7.0 0.00 0.00 0.00 39 1017.2
20260830173809 96 154 4.0 8.0 0.00 0.00 0.00 39 1017.3
20260830173305 96 172 2.0 11.0 0.00 0.00 0.00 39 1017.3
20260830172801 96 204 3.0 5.0 0.00 0.00 0.00 40 1017.3
20260830172257 95 210 3.0 8.0 0.00 0.00 0.00 41 1017.3
20260830171753 96 196 3.0 8.0 0.00 0.00 0.00 39 1017.4
20260830171248 95 161 1.0 6.0 0.00 0.00 0.00 40 1017.3
20260830170742 95 191 5.0 9.0 0.00 0.00 0.00 40 1017.4
20260830170242 95 189 7.0 10.0 0.00 0.00 0.00 40 1017.4
20260830165740 95 201 2.0 7.0 0.00 0.00 0.00 42 1017.4
20260830165236 95 225 3.0 10.0 0.00 0.00 0.00 40 1017.5
20260830164733 95 202 3.0 10.0 0.00 0.00 0.00 40 1017.5
20260830164228 95 222 6.0 15.0 0.00 0.00 0.00 41 1017.2
20260830163725 95 172 2.0 8.0 0.00 0.00 0.00 40 1017.3
20260830163220 94 147 0.0 7.0 0.00 0.00 0.00 42 1017.3
20260830162715 95 212 3.0 7.0 0.00 0.00 0.00 41 1017.4
20260830162212 95 94 2.0 4.0 0.00 0.00 0.00 42 1017.4
20260830161707 93 84 2.0 7.0 0.00 0.00 0.00 42 1017.5
20260830161201 93 225 3.0 6.0 0.00 0.00 0.00 43 1017.3
20260830160657 94 150 4.0 6.0 0.00 0.00 0.00 41 1017.3
20260830160156 93 156 4.0 7.0 0.00 0.00 0.00 43 1017.3
20260830155653 93 224 0.0 3.0 0.00 0.00 0.00 44 1017.5
20260830155149 92 176 0.0 6.0 0.00 0.00 0.00 44 1017.4
20260830154644 92 183 4.0 10.0 0.00 0.00 0.00 43 1017.3
20260830154140 92 169 5.0 10.0 0.00 0.00 0.00 43 1017.4
20260830153636 93 163 7.0 9.0 0.00 0.00 0.00 42 1017.4
20260830153136 92 210 1.0 6.0 0.00 0.00 0.00 44 1017.1
20260830152634 91 138 1.0 6.0 0.00 0.00 0.00 44 1017.2
20260830152134 91 222 5.0 8.0 0.00 0.00 0.00 45 1017.2
20260830151629 91 168 5.0 9.0 0.00 0.00 0.00 45 1017.3
20260830151124 91 172 3.0 7.0 0.00 0.00 0.00 44 1017.4
20260830150623 91 172 2.0 6.0 0.00 0.00 0.00 44 1017.4
20260830150118 92 143 1.0 3.0 0.00 0.00 0.00 42 1017.2
20260830145618 91 151 3.0 5.0 0.00 0.00 0.00 44 1017.4
20260830145113 91 94 0.0 4.0 0.00 0.00 0.00 47 1017.4
20260830144609 91 81 2.0 4.0 0.00 0.00 0.00 46 1017.2
20260830144104 90 179 2.0 4.0 0.00 0.00 0.00 46 1017.4
20260830143600 90 84 2.0 4.0 0.00 0.00 0.00 47 1017.3
20260830143058 89 29 2.0 6.0 0.00 0.00 0.00 48 1017.3
20260830142554 88 226 1.0 3.0 0.00 0.00 0.00 49 1017.4
20260830142049 88 146 0.0 4.0 0.00 0.00 0.00 49 1017.4
20260830141544 87 155 0.0 3.0 0.00 0.00 0.00 50 1017.2
20260830141039 86 145 2.0 5.0 0.00 0.00 0.00 52 1017.2
20260830140538 85 56 3.0 4.0 0.00 0.00 0.00 53 1017.1
20260830140034 84 64 0.0 3.0 0.00 0.00 0.00 55 1017.3
20260830135529 84 18 0.0 1.0 0.00 0.00 0.00 57 1017.1
20260830135024 84 230 0.0 1.0 0.00 0.00 0.00 57 1017.3
20260830134520 84 213 0.0 3.0 0.00 0.00 0.00 55 1016.8
20260830134015 84 147 0.0 1.0 0.00 0.00 0.00 55 1016.9
20260830133511 83 183 0.0 2.0 0.00 0.00 0.00 58 1017.0
20260830133006 82 89 0.0 2.0 0.00 0.00 0.00 60 1016.8
20260830132457 82 63 2.0 3.0 0.00 0.00 0.00 63 1016.7
20260830131956 81 147 0.0 0.0 0.00 0.00 0.00 62 1016.6
20260830131455 81 147 0.0 1.0 0.00 0.00 0.00 63 1016.8
20260830130949 82 336 0.0 1.0 0.00 0.00 0.00 62 1016.6
20260830130440 82 38 2.0 2.0 0.00 0.00 0.00 62 1016.6
20260830125938 82 240 0.0 0.0 0.00 0.00 0.00 61 1016.3
20260830125434 82 230 0.0 1.0 0.00 0.00 0.00 61 1016.0
20260830124932 81 55 2.0 3.0 0.00 0.00 0.00 62 1015.8
20260830124427 81 107 0.0 2.0 0.00 0.00 0.00 61 1016.1
20260830123924 81 212 0.0 1.0 0.00 0.00 0.00 61 1016.1
20260830123420 81 184 1.0 2.0 0.00 0.00 0.00 62 1016.0
20260830122918 81 201 0.0 1.0 0.00 0.00 0.00 61 1016.0
20260830122412 82 91 0.0 2.0 0.00 0.00 0.00 60 1015.6
20260830121907 82 75 0.0 3.0 0.00 0.00 0.00 59 1015.5
20260830121403 82 46 2.0 3.0 0.00 0.00 0.00 60 1015.4
20260830120856 82 339 0.0 2.0 0.00 0.00 0.00 60 1015.5
20260830120352 82 353 1.0 2.0 0.00 0.00 0.00 60 1015.3
20260830115848 82 25 1.0 2.0 0.00 0.00 0.00 61 1015.4
20260830115344 81 76 0.0 2.0 0.00 0.00 0.00 60 1015.3
20260830114839 81 104 0.0 0.0 0.00 0.00 0.00 60 1015.4
20260830114336 81 116 1.0 1.0 0.00 0.00 0.00 60 1015.3
20260830113831 81 284 0.0 1.0 0.00 0.00 0.00 60 1015.5
20260830113326 82 113 0.0 1.0 0.00 0.00 0.00 59 1015.6
20260830112822 81 343 0.0 0.0 0.00 0.00 0.00 59 1015.5
20260830112317 82 333 0.0 1.0 0.00 0.00 0.00 58 1015.4
20260830111813 82 307 0.0 1.0 0.00 0.00 0.00 58 1015.2
20260830111309 82 229 0.0 1.0 0.00 0.00 0.00 58 1015.5
20260830110808 82 142 0.0 0.0 0.00 0.00 0.00 57 1015.4
20260830110305 82 124 0.0 2.0 0.00 0.00 0.00 57 1015.4
20260830105804 82 202 0.0 1.0 0.00 0.00 0.00 57 1015.5
20260830105301 82 179 0.0 3.0 0.00 0.00 0.00 56 1015.4
20260830104756 82 148 1.0 2.0 0.00 0.00 0.00 56 1015.6
20260830104253 83 244 1.0 2.0 0.00 0.00 0.00 55 1015.5
20260830103751 83 220 0.0 3.0 0.00 0.00 0.00 55 1015.4
20260830103248 83 144 2.0 3.0 0.00 0.00 0.00 55 1015.5
20260830102746 84 215 2.0 3.0 0.00 0.00 0.00 54 1015.4
20260830102241 84 152 5.0 6.0 0.00 0.00 0.00 53 1015.7
20260830101737 84 37 0.0 2.0 0.00 0.00 0.00 54 1015.5
20260830101233 85 77 1.0 3.0 0.00 0.00 0.00 53 1015.4
20260830100731 84 195 0.0 1.0 0.00 0.00 0.00 55 1015.3
20260830100226 83 209 0.0 3.0 0.00 0.00 0.00 56 1015.4
20260830095725 83 110 1.0 1.0 0.00 0.00 0.00 57 1015.2
20260830095221 83 104 0.0 0.0 0.00 0.00 0.00 57 1015.1
20260830094717 83 104 0.0 1.0 0.00 0.00 0.00 57 1015.1
20260830094213 83 256 0.0 0.0 0.00 0.00 0.00 56 1014.9
20260830093707 83 129 0.0 1.0 0.00 0.00 0.00 56 1014.8
20260830093204 84 205 0.0 0.0 0.00 0.00 0.00 55 1014.9
20260830092703 84 205 0.0 0.0 0.00 0.00 0.00 55 1014.7
20260830092201 84 343 0.0 0.0 0.00 0.00 0.00 54 1014.8
20260830091656 84 343 0.0 0.0 0.00 0.00 0.00 54 1014.6
20260830091155 85 343 0.0 1.0 0.00 0.00 0.00 53 1014.4
20260830090654 85 113 0.0 0.0 0.00 0.00 0.00 53 1014.6
20260830090150 86 103 0.0 2.0 0.00 0.00 0.00 52 1014.4
20260830085649 86 16 0.0 2.0 0.00 0.00 0.00 51 1014.7
20260830085145 86 347 1.0 1.0 0.00 0.00 0.00 51 1014.7
20260830084641 86 29 0.0 3.0 0.00 0.00 0.00 50 1014.6
20260830084136 86 337 1.0 4.0 0.00 0.00 0.00 50 1014.7
20260830083631 85 19 3.0 4.0 0.00 0.00 0.00 52 1014.8
20260830083126 85 117 0.0 1.0 0.00 0.00 0.00 53 1014.7
20260830082621 85 37 0.0 1.0 0.00 0.00 0.00 53 1014.6
20260830082117 85 217 0.0 0.0 0.00 0.00 0.00 52 1014.5
20260830081613 86 333 0.0 2.0 0.00 0.00 0.00 51 1014.6
20260830081111 86 4 0.0 2.0 0.00 0.00 0.00 51 1014.5
20260830080606 86 289 0.0 1.0 0.00 0.00 0.00 51 1014.2
20260830075556 86 245 0.0 2.0 0.00 0.00 0.00 50 1014.1
20260830075056 86 219 0.0 2.0 0.00 0.00 0.00 50 1014.3
20260830074552 85 259 1.0 1.0 0.00 0.00 0.00 51 1014.3
20260830074048 85 157 0.0 0.0 0.00 0.00 0.00 51 1014.5
20260830073544 86 157 0.0 0.0 0.00 0.00 0.00 50 1014.4
20260830073039 86 202 0.0 1.0 0.00 0.00 0.00 51 1014.6
20260830072534 86 66 0.0 0.0 0.00 0.00 0.00 50 1014.5
20260830072034 86 66 0.0 2.0 0.00 0.00 0.00 50 1014.5
20260830071530 86 105 1.0 3.0 0.00 0.00 0.00 50 1014.6
20260830071027 86 196 1.0 3.0 0.00 0.00 0.00 50 1014.6
20260830070523 86 153 0.0 2.0 0.00 0.00 0.00 50 1014.6
20260830070022 87 96 3.0 6.0 0.00 0.01 0.01 49 1014.8
20260830065521 87 33 0.0 7.0 0.00 0.01 0.01 49 1014.6
20260830065020 87 26 3.0 11.0 0.00 0.01 0.01 49 1014.7
20260830064515 87 51 2.0 8.0 0.00 0.01 0.01 49 1014.9
20260830064010 87 149 3.0 7.0 0.00 0.01 0.01 50 1014.6
20260830063509 87 151 2.0 8.0 0.00 0.01 0.01 50 1014.5
20260830063004 87 104 4.0 8.0 0.00 0.01 0.01 50 1014.2
20260830062503 88 132 4.0 12.0 0.00 0.01 0.01 50 1014.6
20260830061958 88 20 3.0 6.0 0.00 0.01 0.01 50 1014.6
20260830061453 89 106 2.0 6.0 0.00 0.01 0.01 48 1014.7
20260830060949 89 53 3.0 12.0 0.00 0.01 0.01 47 1014.8
20260830060446 89 88 5.0 12.0 0.00 0.01 0.01 47 1014.8
20260830055941 90 63 7.0 7.0 0.00 0.01 0.01 45 1014.8
20260830055436 90 58 5.0 8.0 0.00 0.01 0.01 45 1014.8
20260830054932 90 89 2.0 6.0 0.00 0.01 0.01 45 1014.9
20260830054428 90 204 1.0 8.0 0.00 0.01 0.01 45 1014.9
20260830053923 90 113 3.0 7.0 0.00 0.01 0.01 45 1015.0
20260830053419 90 155 7.0 15.0 0.00 0.01 0.01 44 1015.2
20260830052918 91 87 2.0 7.0 0.00 0.01 0.01 43 1015.0
20260830052414 92 66 3.0 7.0 0.00 0.01 0.01 41 1015.0
20260830051908 93 278 3.0 6.0 0.00 0.01 0.01 39 1015.0
20260830051403 93 167 3.0 9.0 0.00 0.01 0.01 41 1015.1
20260830050902 93 188 2.0 9.0 0.00 0.01 0.01 41 1014.8
20260830050352 93 125 4.0 9.0 0.00 0.01 0.01 41 1014.6
20260830045850 94 164 7.0 13.0 0.00 0.01 0.01 41 1014.3
20260830045346 94 153 3.0 10.0 0.00 0.01 0.01 40 1014.2
20260830044844 94 182 1.0 9.0 0.00 0.01 0.01 40 1014.2
20260830044340 94 155 4.0 7.0 0.00 0.01 0.01 40 1014.0
20260830043829 94 197 2.0 14.0 0.00 0.01 0.01 40 1013.8
20260830043324 94 191 3.0 10.0 0.00 0.01 0.01 40 1013.8
20260830042821 94 227 2.0 8.0 0.00 0.01 0.01 40 1013.7
20260830042316 95 212 2.0 11.0 0.00 0.01 0.01 39 1013.6
20260830041815 95 186 5.0 10.0 0.00 0.01 0.01 38 1013.6
20260830041309 95 172 4.0 11.0 0.00 0.01 0.01 37 1013.4
20260830040804 96 228 1.0 15.0 0.00 0.01 0.01 36 1013.3
20260830040301 96 171 4.0 13.0 0.00 0.01 0.01 34 1013.4
20260830035759 97 150 2.0 13.0 0.00 0.01 0.01 32 1013.2
20260830035253 99 28 2.0 13.0 0.00 0.01 0.01 30 1013.4
20260830034748 100 249 2.0 6.0 0.00 0.01 0.01 30 1012.8
20260830034242 99 173 0.0 3.0 0.00 0.01 0.01 31 1012.6
20260830033738 99 135 0.0 2.0 0.00 0.01 0.01 30 1012.4
20260830033237 100 166 0.0 2.0 0.00 0.01 0.01 30 1012.2
20260830032732 100 205 0.0 3.0 0.00 0.01 0.01 31 1012.0
20260830032222 101 256 0.0 5.0 0.00 0.01 0.01 29 1012.0
20260830031717 101 257 0.0 3.0 0.00 0.01 0.01 29 1011.6
20260830031212 101 252 2.0 3.0 0.00 0.01 0.01 28 1011.6
20260830030708 101 250 1.0 2.0 0.00 0.01 0.01 29 1011.6
20260830030203 100 266 0.0 1.0 0.00 0.01 0.01 30 1011.7
20260830025702 100 205 0.0 1.0 0.00 0.01 0.01 30 1011.6
20260830025156 101 257 0.0 1.0 0.00 0.01 0.01 29 1011.6
20260830024651 101 249 0.0 0.0 0.00 0.01 0.01 29 1011.3
20260830024150 102 231 1.0 2.0 0.00 0.01 0.01 28 1011.3
20260830023648 102 237 0.0 2.0 0.00 0.01 0.01 28 1011.1
20260830023143 103 235 1.0 5.0 0.00 0.01 0.01 27 1011.0
20260830022637 103 224 0.0 4.0 0.00 0.01 0.01 27 1011.1
20260830022133 103 235 1.0 5.0 0.00 0.01 0.01 26 1010.7
20260830021632 104 248 3.0 5.0 0.00 0.01 0.01 26 1010.7
20260830021127 104 315 2.0 3.0 0.00 0.01 0.01 26 1010.7
20260830020626 104 241 4.0 7.0 0.00 0.01 0.01 25 1010.7
20260830020122 104 224 3.0 5.0 0.00 0.01 0.01 25 1010.8
20260830015621 104 244 4.0 5.0 0.00 0.01 0.01 25 1010.5
20260830015117 105 273 3.0 5.0 0.00 0.01 0.01 25 1010.5
20260830014612 105 223 3.0 9.0 0.00 0.01 0.01 24 1010.7
20260830014109 105 255 4.0 7.0 0.00 0.01 0.01 24 1010.4
20260830013603 105 265 6.0 11.0 0.00 0.01 0.01 24 1010.6
20260830013059 106 249 5.0 11.0 0.00 0.01 0.01 24 1010.5
20260830012558 106 257 4.0 12.0 0.00 0.01 0.01 24 1010.4
20260830012055 106 277 2.0 6.0 0.00 0.01 0.01 24 1010.3
20260830011555 106 261 3.0 7.0 0.00 0.01 0.01 24 1010.4
20260830011050 107 286 3.0 9.0 0.00 0.01 0.01 23 1010.4
20260830010545 107 234 4.0 13.0 0.00 0.01 0.01 24 1010.6